Wetterdaten: Montag, 23.09.2013
Datum Zeit Temperatur Luftfeuchte Luftdruck Regen Wind Richtung Richtung Taupunkt Windchill Windben
23.09.2013 00:00 6,6 C 90 % 1028,0 hPa 0,0 l/m 0,0 km/h (0 Bft) O-SO 112 5,1 C 6,7 C 0,0 km/h (0 Bft)
23.09.2013 00:05 6,6 C 90 % 1028,0 hPa 0,0 l/m 0,0 km/h (0 Bft) O-SO 112 5,1 C 6,6 C 0,0 km/h (0 Bft)
23.09.2013 00:10 6,4 C 90 % 1027,9 hPa 0,0 l/m 0,0 km/h (0 Bft) O 90 4,9 C 6,4 C 0,0 km/h (0 Bft)
23.09.2013 00:15 6,2 C 90 % 1027,9 hPa 0,0 l/m 0,0 km/h (0 Bft) O-SO 112 4,7 C 6,4 C 0,0 km/h (0 Bft)
23.09.2013 00:20 6,3 C 90 % 1027,9 hPa 0,0 l/m 0,0 km/h (0 Bft) O-SO 112 4,8 C 6,4 C 0,0 km/h (0 Bft)
23.09.2013 00:25 6,4 C 90 % 1027,9 hPa 0,0 l/m 0,0 km/h (0 Bft) O 90 4,9 C 6,4 C 0,0 km/h (0 Bft)
23.09.2013 00:30 6,3 C 90 % 1027,9 hPa 0,0 l/m 0,0 km/h (0 Bft) O 90 4,8 C 6,4 C 0,0 km/h (0 Bft)
23.09.2013 00:35 6,5 C 90 % 1027,9 hPa 0,0 l/m 0,0 km/h (0 Bft) O 90 5,0 C 6,4 C 0,0 km/h (0 Bft)
23.09.2013 00:40 6,2 C 90 % 1027,9 hPa 0,0 l/m 0,0 km/h (0 Bft) O 90 4,7 C 6,4 C 0,0 km/h (0 Bft)
23.09.2013 00:45 6,1 C 90 % 1027,9 hPa 0,0 l/m 0,0 km/h (0 Bft) O 90 4,6 C 6,4 C 0,0 km/h (0 Bft)
23.09.2013 00:50 6,1 C 90 % 1027,9 hPa 0,0 l/m 0,0 km/h (0 Bft) O-SO 112 4,6 C 6,2 C 0,0 km/h (0 Bft)
23.09.2013 00:55 6,2 C 90 % 1027,9 hPa 0,0 l/m 0,0 km/h (0 Bft) S 180 4,7 C 6,1 C 0,0 km/h (0 Bft)
23.09.2013 01:00 6,1 C 90 % 1027,9 hPa 0,0 l/m 0,0 km/h (0 Bft) O 90 4,6 C 6,1 C 0,0 km/h (0 Bft)
23.09.2013 01:05 6,0 C 90 % 1027,9 hPa 0,0 l/m 0,0 km/h (0 Bft) O 90 4,5 C 6,1 C 0,0 km/h (0 Bft)
23.09.2013 01:10 5,8 C 91 % 1027,6 hPa 0,0 l/m 0,0 km/h (0 Bft) NO 45 4,4 C 6,1 C 0,0 km/h (0 Bft)
23.09.2013 01:15 5,8 C 91 % 1027,6 hPa 0,0 l/m 0,0 km/h (0 Bft) NO 45 4,4 C 5,9 C 0,0 km/h (0 Bft)
23.09.2013 01:20 5,7 C 91 % 1027,6 hPa 0,0 l/m 0,0 km/h (0 Bft) NO 45 4,3 C 5,9 C 0,0 km/h (0 Bft)
23.09.2013 01:25 5,9 C 92 % 1027,6 hPa 0,0 l/m 0,0 km/h (0 Bft) NO 45 4,7 C 5,9 C 0,0 km/h (0 Bft)
23.09.2013 01:30 5,8 C 92 % 1027,8 hPa 0,0 l/m 0,0 km/h (0 Bft) NO 45 4,6 C 5,7 C 0,0 km/h (0 Bft)
23.09.2013 01:35 5,6 C 91 % 1027,8 hPa 0,0 l/m 0,0 km/h (0 Bft) NO 45 4,2 C 5,7 C 0,0 km/h (0 Bft)
23.09.2013 01:40 5,6 C 92 % 1027,8 hPa 0,0 l/m 0,0 km/h (0 Bft) NO 45 4,4 C 5,5 C 0,0 km/h (0 Bft)
23.09.2013 01:45 5,4 C 91 % 1027,8 hPa 0,0 l/m 0,0 km/h (0 Bft) NO 45 4,1 C 5,5 C 0,0 km/h (0 Bft)
23.09.2013 01:50 5,4 C 91 % 1027,8 hPa 0,0 l/m 0,0 km/h (0 Bft) O 90 4,1 C 5,4 C 0,0 km/h (0 Bft)
23.09.2013 01:55 5,3 C 92 % 1027,8 hPa 0,0 l/m 0,0 km/h (0 Bft) O 90 4,1 C 5,3 C 0,0 km/h (0 Bft)
23.09.2013 02:00 5,2 C 92 % 1027,8 hPa 0,0 l/m 0,0 km/h (0 Bft) O 90 4,0 C 5,1 C 0,0 km/h (0 Bft)
23.09.2013 02:05 5,4 C 92 % 1027,8 hPa 0,0 l/m 0,0 km/h (0 Bft) O 90 4,2 C 5,1 C 0,0 km/h (0 Bft)
23.09.2013 02:10 6,2 C 91 % 1027,8 hPa 0,0 l/m 0,6 km/h (0 Bft) O-NO 67 4,8 C 5,3 C 4,0 km/h (1 Bft)
23.09.2013 02:15 6,6 C 91 % 1027,8 hPa 0,0 l/m 1,9 km/h (1 Bft) O-NO 67 5,2 C 5,9 C 3,4 km/h (1 Bft)
23.09.2013 02:20 6,5 C 92 % 1027,8 hPa 0,0 l/m 2,4 km/h (1 Bft) S 180 5,3 C 6,4 C 5,3 km/h (1 Bft)
23.09.2013 02:25 6,2 C 92 % 1027,8 hPa 0,0 l/m 1,9 km/h (1 Bft) S-SO 157 5,0 C 6,5 C 1,6 km/h (1 Bft)
23.09.2013 02:30 6,3 C 92 % 1027,7 hPa 0,0 l/m 1,8 km/h (1 Bft) NO 45 5,1 C 6,4 C 3,7 km/h (1 Bft)
23.09.2013 02:35 6,4 C 92 % 1027,7 hPa 0,0 l/m 2,6 km/h (1 Bft) O-SO 112 5,2 C 6,4 C 4,2 km/h (1 Bft)
23.09.2013 02:40 6,3 C 92 % 1027,7 hPa 0,0 l/m 2,9 km/h (1 Bft) NO 45 5,1 C 6,4 C 2,9 km/h (1 Bft)
23.09.2013 02:45 6,5 C 92 % 1027,7 hPa 0,0 l/m 2,9 km/h (1 Bft) O-NO 67 5,3 C 6,4 C 3,5 km/h (1 Bft)
23.09.2013 02:50 6,5 C 92 % 1027,4 hPa 0,0 l/m 2,6 km/h (1 Bft) NO 45 5,3 C 6,5 C 2,3 km/h (1 Bft)
23.09.2013 02:55 6,6 C 92 % 1027,4 hPa 0,0 l/m 2,9 km/h (1 Bft) O-NO 67 5,4 C 6,5 C 4,2 km/h (1 Bft)
23.09.2013 03:00 6,4 C 92 % 1027,4 hPa 0,0 l/m 2,4 km/h (1 Bft) O 90 5,2 C 6,6 C 5,8 km/h (2 Bft)
23.09.2013 03:05 6,4 C 92 % 1027,4 hPa 0,0 l/m 2,1 km/h (1 Bft) N 360 5,2 C 6,5 C 0,0 km/h (0 Bft)
23.09.2013 03:10 5,9 C 93 % 1027,4 hPa 0,0 l/m 0,3 km/h (0 Bft) O 90 4,9 C 6,2 C 0,0 km/h (0 Bft)
23.09.2013 03:15 6,0 C 92 % 1027,4 hPa 0,0 l/m 0,0 km/h (0 Bft) O 90 4,8 C 5,9 C 1,8 km/h (1 Bft)
23.09.2013 03:20 5,8 C 93 % 1027,4 hPa 0,0 l/m 0,2 km/h (0 Bft) NO 45 4,8 C 5,9 C 0,0 km/h (0 Bft)
23.09.2013 03:25 5,9 C 93 % 1027,4 hPa 0,0 l/m 0,2 km/h (0 Bft) O 90 4,9 C 5,7 C 1,6 km/h (1 Bft)
23.09.2013 03:30 5,9 C 93 % 1027,2 hPa 0,0 l/m 0,6 km/h (0 Bft) O-SO 112 4,9 C 5,7 C 0,0 km/h (0 Bft)
23.09.2013 03:35 5,6 C 93 % 1027,2 hPa 0,0 l/m 0,5 km/h (0 Bft) NO 45 4,6 C 5,6 C 0,0 km/h (0 Bft)
23.09.2013 03:40 5,2 C 93 % 1027,2 hPa 0,0 l/m 0,0 km/h (0 Bft) NO 45 4,2 C 5,3 C 0,0 km/h (0 Bft)
23.09.2013 03:45 5,1 C 93 % 1027,2 hPa 0,0 l/m 0,0 km/h (0 Bft) N-NO 22 4,1 C 5,3 C 0,0 km/h (0 Bft)
23.09.2013 03:50 4,9 C 93 % 1027,1 hPa 0,0 l/m 0,0 km/h (0 Bft) O-SO 112 3,9 C 5,0 C 0,0 km/h (0 Bft)
23.09.2013 03:55 5,1 C 93 % 1027,1 hPa 0,0 l/m 0,0 km/h (0 Bft) O-SO 112 4,1 C 4,9 C 0,0 km/h (0 Bft)
23.09.2013 04:00 4,8 C 93 % 1027,1 hPa 0,0 l/m 0,0 km/h (0 Bft) S 180 3,8 C 5,1 C 0,0 km/h (0 Bft)
23.09.2013 04:05 4,9 C 93 % 1027,1 hPa 0,0 l/m 0,0 km/h (0 Bft) S-SW 202 3,9 C 5,1 C 0,0 km/h (0 Bft)
23.09.2013 04:10 4,9 C 93 % 1027,0 hPa 0,0 l/m 0,0 km/h (0 Bft) O-NO 67 3,9 C 5,1 C 0,0 km/h (0 Bft)
23.09.2013 04:15 5,0 C 93 % 1027,0 hPa 0,0 l/m 0,0 km/h (0 Bft) O-NO 67 4,0 C 5,0 C 0,0 km/h (0 Bft)
23.09.2013 04:20 5,0 C 93 % 1027,0 hPa 0,0 l/m 0,0 km/h (0 Bft) S 180 4,0 C 5,0 C 0,0 km/h (0 Bft)
23.09.2013 04:25 5,0 C 93 % 1027,0 hPa 0,0 l/m 0,0 km/h (0 Bft) S-SO 157 4,0 C 5,0 C 0,0 km/h (0 Bft)
23.09.2013 04:30 5,0 C 93 % 1027,0 hPa 0,0 l/m 0,2 km/h (0 Bft) NO 45 4,0 C 4,9 C 2,3 km/h (1 Bft)
23.09.2013 04:35 5,5 C 93 % 1027,0 hPa 0,0 l/m 1,3 km/h (1 Bft) O 90 4,5 C 5,1 C 3,5 km/h (1 Bft)
23.09.2013 04:40 5,7 C 94 % 1027,0 hPa 0,0 l/m 2,1 km/h (1 Bft) O-NO 67 4,8 C 5,5 C 1,6 km/h (1 Bft)
23.09.2013 04:45 5,5 C 94 % 1027,0 hPa 0,0 l/m 2,1 km/h (1 Bft) O-SO 112 4,6 C 5,5 C 1,8 km/h (1 Bft)
23.09.2013 04:50 5,8 C 94 % 1027,0 hPa 0,0 l/m 2,1 km/h (1 Bft) O 90 4,9 C 5,7 C 3,2 km/h (1 Bft)
23.09.2013 04:55 5,9 C 94 % 1027,0 hPa 0,0 l/m 2,6 km/h (1 Bft) O-NO 67 5,0 C 5,8 C 2,4 km/h (1 Bft)
23.09.2013 05:00 5,9 C 94 % 1027,0 hPa 0,0 l/m 2,6 km/h (1 Bft) O 90 5,0 C 5,8 C 3,9 km/h (1 Bft)
23.09.2013 05:05 6,0 C 93 % 1027,0 hPa 0,0 l/m 2,6 km/h (1 Bft) O-NO 67 5,0 C 5,9 C 3,4 km/h (1 Bft)
23.09.2013 05:10 6,2 C 93 % 1026,8 hPa 0,0 l/m 3,4 km/h (1 Bft) O-NO 67 5,2 C 5,9 C 4,2 km/h (1 Bft)
23.09.2013 05:15 6,0 C 93 % 1026,8 hPa 0,0 l/m 3,7 km/h (1 Bft) O 90 5,0 C 5,9 C 4,3 km/h (1 Bft)
23.09.2013 05:20 5,8 C 94 % 1026,8 hPa 0,0 l/m 2,9 km/h (1 Bft) N-NO 22 4,9 C 5,9 C 0,0 km/h (0 Bft)
23.09.2013 05:25 5,7 C 94 % 1026,8 hPa 0,0 l/m 2,3 km/h (1 Bft) NO 45 4,8 C 5,9 C 1,9 km/h (1 Bft)
23.09.2013 05:30 5,6 C 94 % 1026,8 hPa 0,0 l/m 0,8 km/h (0 Bft) O-NO 67 4,7 C 5,6 C 1,9 km/h (1 Bft)
23.09.2013 05:35 5,4 C 94 % 1026,8 hPa 0,0 l/m 0,6 km/h (0 Bft) N-NO 22 4,5 C 5,5 C 0,0 km/h (0 Bft)
23.09.2013 05:40 5,8 C 94 % 1026,8 hPa 0,0 l/m 0,3 km/h (0 Bft) NO 45 4,9 C 5,5 C 0,0 km/h (0 Bft)
23.09.2013 05:45 5,8 C 94 % 1026,8 hPa 0,0 l/m 0,2 km/h (0 Bft) NO 45 4,9 C 5,6 C 0,0 km/h (0 Bft)
23.09.2013 05:50 5,6 C 94 % 1026,8 hPa 0,0 l/m 0,0 km/h (0 Bft) N-NO 22 4,7 C 5,9 C 0,0 km/h (0 Bft)
23.09.2013 05:55 5,6 C 94 % 1026,8 hPa 0,0 l/m 0,0 km/h (0 Bft) N-NO 22 4,7 C 5,9 C 0,0 km/h (0 Bft)
23.09.2013 06:00 5,6 C 94 % 1026,8 hPa 0,0 l/m 0,0 km/h (0 Bft) N-NO 22 4,7 C 5,9 C 0,0 km/h (0 Bft)
23.09.2013 06:05 5,7 C 94 % 1026,8 hPa 0,0 l/m 0,0 km/h (0 Bft) N-NO 22 4,8 C 5,9 C 0,0 km/h (0 Bft)
23.09.2013 06:10 6,0 C 93 % 1026,9 hPa 0,0 l/m 0,2 km/h (0 Bft) NO 45 5,0 C 5,9 C 0,0 km/h (0 Bft)
23.09.2013 06:15 5,9 C 94 % 1026,9 hPa 0,0 l/m 0,2 km/h (0 Bft) N-NO 22 5,0 C 5,9 C 0,0 km/h (0 Bft)
23.09.2013 06:20 5,9 C 94 % 1026,9 hPa 0,0 l/m 0,2 km/h (0 Bft) O-SO 112 5,0 C 5,9 C 0,0 km/h (0 Bft)
23.09.2013 06:25 5,8 C 94 % 1026,9 hPa 0,0 l/m 0,2 km/h (0 Bft) N-NO 22 4,9 C 5,9 C 0,0 km/h (0 Bft)
23.09.2013 06:30 5,7 C 94 % 1026,9 hPa 0,0 l/m 0,0 km/h (0 Bft) N-NO 22 4,8 C 5,9 C 0,0 km/h (0 Bft)
23.09.2013 06:35 6,0 C 93 % 1026,9 hPa 0,0 l/m 0,2 km/h (0 Bft) O 90 5,0 C 5,9 C 2,4 km/h (1 Bft)
23.09.2013 06:40 6,3 C 93 % 1026,9 hPa 0,0 l/m 1,6 km/h (1 Bft) O-NO 67 5,3 C 6,1 C 1,9 km/h (1 Bft)
23.09.2013 06:45 6,3 C 93 % 1026,9 hPa 0,0 l/m 1,8 km/h (1 Bft) O-SO 112 5,3 C 6,2 C 2,1 km/h (1 Bft)
23.09.2013 06:50 6,0 C 93 % 1026,9 hPa 0,0 l/m 0,5 km/h (0 Bft) O-SO 112 5,0 C 6,3 C 0,0 km/h (0 Bft)
23.09.2013 06:55 6,3 C 93 % 1026,9 hPa 0,0 l/m 0,0 km/h (0 Bft) O 90 5,3 C 6,4 C 0,0 km/h (0 Bft)
23.09.2013 07:00 6,8 C 94 % 1026,9 hPa 0,0 l/m 0,0 km/h (0 Bft) O-SO 112 5,9 C 6,6 C 0,0 km/h (0 Bft)
23.09.2013 07:05 6,4 C 94 % 1026,9 hPa 0,0 l/m 0,0 km/h (0 Bft) O-SO 112 5,5 C 6,7 C 0,0 km/h (0 Bft)
23.09.2013 07:10 6,3 C 93 % 1026,9 hPa 0,0 l/m 0,0 km/h (0 Bft) N-NO 22 5,3 C 6,6 C 0,0 km/h (0 Bft)
23.09.2013 07:15 6,4 C 93 % 1026,9 hPa 0,0 l/m 0,0 km/h (0 Bft) N-NO 22 5,4 C 6,6 C 0,0 km/h (0 Bft)
23.09.2013 07:20 6,5 C 94 % 1026,9 hPa 0,0 l/m 0,0 km/h (0 Bft) O 90 5,6 C 6,7 C 0,0 km/h (0 Bft)
23.09.2013 07:25 6,7 C 94 % 1026,9 hPa 0,0 l/m 0,2 km/h (0 Bft) NO 45 5,8 C 6,8 C 0,0 km/h (0 Bft)
23.09.2013 07:30 6,8 C 94 % 1026,9 hPa 0,0 l/m 0,2 km/h (0 Bft) O-NO 67 5,9 C 6,9 C 1,8 km/h (1 Bft)
23.09.2013 07:35 6,9 C 94 % 1026,9 hPa 0,0 l/m 0,2 km/h (0 Bft) O 90 6,0 C 7,0 C 0,0 km/h (0 Bft)
23.09.2013 07:40 7,0 C 93 % 1026,9 hPa 0,0 l/m 0,2 km/h (0 Bft) W 270 5,9 C 7,2 C 0,0 km/h (0 Bft)
23.09.2013 07:45 7,0 C 93 % 1026,9 hPa 0,0 l/m 0,0 km/h (0 Bft) W-NW 292 5,9 C 7,2 C 0,0 km/h (0 Bft)
23.09.2013 07:50 7,1 C 93 % 1026,9 hPa 0,0 l/m 0,0 km/h (0 Bft) NO 45 6,0 C 7,4 C 0,0 km/h (0 Bft)
23.09.2013 07:55 7,3 C 94 % 1026,9 hPa 0,0 l/m 0,0 km/h (0 Bft) S-SO 157 6,4 C 7,4 C 0,0 km/h (0 Bft)
23.09.2013 08:00 7,4 C 94 % 1026,9 hPa 0,0 l/m 0,3 km/h (0 Bft) W-SW 247 6,5 C 7,6 C 0,0 km/h (0 Bft)
23.09.2013 08:05 7,5 C 94 % 1026,9 hPa 0,0 l/m 0,3 km/h (0 Bft) O-NO 67 6,6 C 7,7 C 0,0 km/h (0 Bft)
23.09.2013 08:10 7,8 C 94 % 1027,1 hPa 0,0 l/m 0,0 km/h (0 Bft) W-NW 292 6,9 C 7,9 C 0,0 km/h (0 Bft)
23.09.2013 08:15 7,8 C 94 % 1027,1 hPa 0,0 l/m 0,0 km/h (0 Bft) S-SW 202 6,9 C 8,1 C 0,0 km/h (0 Bft)
23.09.2013 08:20 8,0 C 93 % 1027,1 hPa 0,0 l/m 0,2 km/h (0 Bft) O-NO 67 6,9 C 8,3 C 0,0 km/h (0 Bft)
23.09.2013 08:25 8,1 C 93 % 1027,1 hPa 0,0 l/m 0,2 km/h (0 Bft) N-NO 22 7,0 C 8,4 C 0,0 km/h (0 Bft)
23.09.2013 08:30 8,2 C 93 % 1026,9 hPa 0,0 l/m 0,5 km/h (0 Bft) W-SW 247 7,1 C 8,6 C 2,3 km/h (1 Bft)
23.09.2013 08:35 8,1 C 93 % 1026,9 hPa 0,0 l/m 0,6 km/h (0 Bft) S 180 7,0 C 8,6 C 0,0 km/h (0 Bft)
23.09.2013 08:40 8,4 C 93 % 1026,9 hPa 0,0 l/m 0,5 km/h (0 Bft) S 180 7,3 C 8,8 C 0,0 km/h (0 Bft)
23.09.2013 08:45 8,5 C 93 % 1026,9 hPa 0,0 l/m 0,2 km/h (0 Bft) O-SO 112 7,4 C 8,8 C 0,0 km/h (0 Bft)
23.09.2013 08:50 8,7 C 93 % 1026,9 hPa 0,0 l/m 0,5 km/h (0 Bft) N-NO 22 7,6 C 9,2 C 5,3 km/h (1 Bft)
23.09.2013 08:55 8,8 C 93 % 1026,9 hPa 0,0 l/m 0,8 km/h (0 Bft) W 270 7,7 C 9,4 C 3,5 km/h (1 Bft)
23.09.2013 09:00 8,6 C 93 % 1026,9 hPa 0,0 l/m 0,8 km/h (0 Bft) N-NW 337 7,5 C 9,4 C 0,0 km/h (0 Bft)
23.09.2013 09:05 8,8 C 93 % 1026,9 hPa 0,0 l/m 0,5 km/h (0 Bft) N-NW 337 7,7 C 9,4 C 0,0 km/h (0 Bft)
23.09.2013 09:10 9,0 C 93 % 1027,1 hPa 0,0 l/m 0,0 km/h (0 Bft) W-NW 292 7,9 C 9,7 C 0,0 km/h (0 Bft)
23.09.2013 09:15 8,9 C 93 % 1027,1 hPa 0,0 l/m 0,0 km/h (0 Bft) NO 45 7,8 C 9,8 C 0,0 km/h (0 Bft)
23.09.2013 09:20 9,1 C 93 % 1027,1 hPa 0,0 l/m 0,2 km/h (0 Bft) N 360 8,0 C 10,1 C 0,0 km/h (0 Bft)
23.09.2013 09:25 9,4 C 93 % 1027,1 hPa 0,0 l/m 0,2 km/h (0 Bft) W-NW 292 8,3 C 10,3 C 1,8 km/h (1 Bft)
23.09.2013 09:30 9,7 C 93 % 1027,1 hPa 0,0 l/m 0,2 km/h (0 Bft) W-SW 247 8,6 C 10,7 C 0,0 km/h (0 Bft)
23.09.2013 09:35 10,1 C 93 % 1027,1 hPa 0,0 l/m 0,0 km/h (0 Bft) W-SW 247 9,0 C 11,0 C 0,0 km/h (0 Bft)
23.09.2013 09:40 10,1 C 92 % 1027,1 hPa 0,0 l/m 0,0 km/h (0 Bft) W-SW 247 8,9 C 11,4 C 0,0 km/h (0 Bft)
23.09.2013 09:45 10,7 C 92 % 1027,1 hPa 0,0 l/m 0,0 km/h (0 Bft) W-SW 247 9,5 C 11,7 C 0,0 km/h (0 Bft)
23.09.2013 09:50 11,1 C 92 % 1027,2 hPa 0,0 l/m 0,0 km/h (0 Bft) W-SW 247 9,8 C 12,3 C 0,0 km/h (0 Bft)
23.09.2013 09:55 11,2 C 92 % 1027,2 hPa 0,0 l/m 0,0 km/h (0 Bft) W-NW 292 9,9 C 12,7 C 0,0 km/h (0 Bft)
23.09.2013 10:00 11,5 C 91 % 1027,2 hPa 0,0 l/m 0,0 km/h (0 Bft) W-NW 292 10,1 C 13,1 C 0,0 km/h (0 Bft)
23.09.2013 10:05 11,9 C 91 % 1027,2 hPa 0,0 l/m 0,0 km/h (0 Bft) W-SW 247 10,5 C 13,3 C 0,0 km/h (0 Bft)
23.09.2013 10:10 12,9 C 90 % 1027,2 hPa 0,0 l/m 0,0 km/h (0 Bft) W 270 11,3 C 14,1 C 0,0 km/h (0 Bft)
23.09.2013 10:15 13,3 C 88 % 1027,2 hPa 0,0 l/m 0,0 km/h (0 Bft) S 180 11,4 C 15,1 C 0,0 km/h (0 Bft)
23.09.2013 10:20 13,4 C 87 % 1027,2 hPa 0,0 l/m 0,0 km/h (0 Bft) W-SW 247 11,3 C 15,7 C 0,0 km/h (0 Bft)
23.09.2013 10:25 13,8 C 86 % 1027,2 hPa 0,0 l/m 0,0 km/h (0 Bft) N-NW 337 11,5 C 15,7 C 0,0 km/h (0 Bft)
23.09.2013 10:30 15,8 C 78 % 1027,2 hPa 0,0 l/m 0,5 km/h (0 Bft) O-NO 67 12,0 C 16,5 C 2,6 km/h (1 Bft)
23.09.2013 10:35 14,5 C 74 % 1027,2 hPa 0,0 l/m 0,6 km/h (0 Bft) NW 315 9,9 C 17,3 C 2,6 km/h (1 Bft)
23.09.2013 10:40 13,3 C 72 % 1027,2 hPa 0,0 l/m 1,9 km/h (1 Bft) N-NO 22 8,4 C 16,3 C 4,8 km/h (1 Bft)
23.09.2013 10:45 12,9 C 76 % 1027,2 hPa 0,0 l/m 2,3 km/h (1 Bft) N-NW 337 8,8 C 15,8 C 3,2 km/h (1 Bft)
23.09.2013 10:50 13,1 C 76 % 1027,1 hPa 0,0 l/m 1,4 km/h (1 Bft) NW 315 9,0 C 15,0 C 1,6 km/h (1 Bft)
23.09.2013 10:55 13,5 C 77 % 1027,1 hPa 0,0 l/m 1,0 km/h (0 Bft) W-SW 247 9,5 C 15,0 C 0,0 km/h (0 Bft)
23.09.2013 11:00 13,9 C 74 % 1027,1 hPa 0,0 l/m 0,8 km/h (0 Bft) W 270 9,3 C 15,4 C 3,1 km/h (1 Bft)
23.09.2013 11:05 14,1 C 74 % 1027,1 hPa 0,0 l/m 1,3 km/h (1 Bft) W-NW 292 9,5 C 15,5 C 2,3 km/h (1 Bft)
23.09.2013 11:10 15,6 C 72 % 1027,4 hPa 0,0 l/m 2,3 km/h (1 Bft) W-NW 292 10,6 C 15,4 C 2,9 km/h (1 Bft)
23.09.2013 11:15 17,9 C 64 % 1027,4 hPa 0,0 l/m 2,3 km/h (1 Bft) W-SW 247 11,0 C 16,3 C 3,5 km/h (1 Bft)
23.09.2013 11:20 16,7 C 56 % 1027,4 hPa 0,0 l/m 2,1 km/h (1 Bft) N 360 7,9 C 17,8 C 3,1 km/h (1 Bft)
23.09.2013 11:25 15,4 C 63 % 1027,4 hPa 0,0 l/m 2,4 km/h (1 Bft) O-SO 112 8,4 C 17,7 C 3,7 km/h (1 Bft)
23.09.2013 11:30 16,8 C 59 % 1027,6 hPa 0,0 l/m 2,6 km/h (1 Bft) W-SW 247 8,7 C 17,3 C 3,7 km/h (1 Bft)
23.09.2013 11:35 15,6 C 61 % 1027,6 hPa 0,0 l/m 3,2 km/h (1 Bft) NO 45 8,1 C 17,4 C 6,3 km/h (2 Bft)
23.09.2013 11:40 14,3 C 65 % 1027,6 hPa 0,0 l/m 3,5 km/h (1 Bft) O 90 7,8 C 16,5 C 6,8 km/h (2 Bft)
23.09.2013 11:45 14,3 C 67 % 1027,6 hPa 0,0 l/m 3,2 km/h (1 Bft) O-NO 67 8,3 C 16,3 C 2,3 km/h (1 Bft)
23.09.2013 11:50 15,2 C 66 % 1027,2 hPa 0,0 l/m 1,0 km/h (0 Bft) W-NW 292 8,9 C 17,2 C 3,1 km/h (1 Bft)
23.09.2013 11:55 16,3 C 62 % 1027,2 hPa 0,0 l/m 1,4 km/h (1 Bft) W-SW 247 9,0 C 17,5 C 0,0 km/h (0 Bft)
23.09.2013 12:00 18,1 C 56 % 1027,2 hPa 0,0 l/m 1,6 km/h (1 Bft) N-NW 337 9,2 C 19,5 C 4,7 km/h (1 Bft)
23.09.2013 12:05 17,7 C 54 % 1027,2 hPa 0,0 l/m 1,8 km/h (1 Bft) W-NW 292 8,3 C 19,9 C 2,4 km/h (1 Bft)
23.09.2013 12:10 18,8 C 56 % 1027,2 hPa 0,0 l/m 1,8 km/h (1 Bft) N 360 9,8 C 20,5 C 4,3 km/h (1 Bft)
23.09.2013 12:15 18,8 C 56 % 1027,2 hPa 0,0 l/m 1,8 km/h (1 Bft) N 360 9,8 C 20,5 C 4,3 km/h (1 Bft)
23.09.2013 12:20 19,5 C 54 % 1027,2 hPa 0,0 l/m 1,3 km/h (1 Bft) W-NW 292 9,9 C 22,5 C 0,0 km/h (0 Bft)
23.09.2013 12:25 17,6 C 56 % 1027,2 hPa 0,0 l/m 1,8 km/h (1 Bft) W 270 8,7 C 22,4 C 2,6 km/h (1 Bft)
23.09.2013 12:30 17,9 C 52 % 1027,3 hPa 0,0 l/m 2,4 km/h (1 Bft) N-NW 337 7,9 C 21,5 C 0,0 km/h (0 Bft)
23.09.2013 12:35 17,6 C 54 % 1027,3 hPa 0,0 l/m 2,1 km/h (1 Bft) N-NW 337 8,2 C 21,5 C 0,0 km/h (0 Bft)
23.09.2013 12:40 18,8 C 55 % 1027,3 hPa 0,0 l/m 1,9 km/h (1 Bft) O 90 9,6 C 21,7 C 2,3 km/h (1 Bft)
23.09.2013 12:45 16,8 C 57 % 1027,3 hPa 0,0 l/m 1,8 km/h (1 Bft) O-NO 67 8,2 C 21,9 C 4,2 km/h (1 Bft)
23.09.2013 12:50 16,0 C 59 % 1027,1 hPa 0,0 l/m 1,8 km/h (1 Bft) S-SO 157 8,0 C 22,2 C 1,8 km/h (1 Bft)
23.09.2013 12:55 16,2 C 60 % 1027,1 hPa 0,0 l/m 2,1 km/h (1 Bft) W-SW 247 8,4 C 22,4 C 2,7 km/h (1 Bft)
23.09.2013 13:00 16,4 C 59 % 1027,1 hPa 0,0 l/m 2,6 km/h (1 Bft) SO 135 8,4 C 22,5 C 4,8 km/h (1 Bft)
23.09.2013 13:05 16,3 C 60 % 1027,1 hPa 0,0 l/m 2,7 km/h (1 Bft) O 90 8,5 C 22,5 C 4,3 km/h (1 Bft)
23.09.2013 13:10 16,1 C 61 % 1027,1 hPa 0,0 l/m 2,1 km/h (1 Bft) N-NW 337 8,6 C 23,0 C 2,9 km/h (1 Bft)
23.09.2013 13:15 15,9 C 62 % 1027,1 hPa 0,0 l/m 2,3 km/h (1 Bft) N-NO 22 8,6 C 23,1 C 7,1 km/h (2 Bft)
23.09.2013 13:20 15,8 C 65 % 1027,1 hPa 0,0 l/m 2,9 km/h (1 Bft) W 270 9,2 C 22,6 C 4,3 km/h (1 Bft)
23.09.2013 13:25 16,3 C 64 % 1027,1 hPa 0,0 l/m 2,9 km/h (1 Bft) W 270 9,5 C 22,5 C 0,0 km/h (0 Bft)
23.09.2013 13:30 16,8 C 60 % 1026,9 hPa 0,0 l/m 1,4 km/h (1 Bft) S 180 9,0 C 23,1 C 1,6 km/h (1 Bft)
23.09.2013 13:35 17,2 C 61 % 1026,9 hPa 0,0 l/m 1,1 km/h (1 Bft) W-NW 292 9,6 C 23,5 C 0,0 km/h (0 Bft)
23.09.2013 13:40 17,4 C 57 % 1026,9 hPa 0,0 l/m 1,8 km/h (1 Bft) N-NO 22 8,8 C 23,6 C 2,1 km/h (1 Bft)
23.09.2013 13:45 18,0 C 58 % 1026,9 hPa 0,0 l/m 1,6 km/h (1 Bft) S 180 9,6 C 23,5 C 2,7 km/h (1 Bft)
23.09.2013 13:50 18,2 C 57 % 1026,9 hPa 0,0 l/m 2,1 km/h (1 Bft) S 180 9,5 C 23,5 C 7,2 km/h (2 Bft)
23.09.2013 13:55 18,4 C 56 % 1026,9 hPa 0,0 l/m 3,2 km/h (1 Bft) S-SW 202 9,5 C 23,5 C 4,8 km/h (1 Bft)
23.09.2013 14:00 18,9 C 57 % 1026,9 hPa 0,0 l/m 4,0 km/h (1 Bft) S-SW 202 10,2 C 23,0 C 9,2 km/h (2 Bft)
23.09.2013 14:05 19,2 C 55 % 1026,9 hPa 0,0 l/m 4,2 km/h (1 Bft) SW 225 9,9 C 22,9 C 3,2 km/h (1 Bft)
23.09.2013 14:10 19,0 C 56 % 1026,9 hPa 0,0 l/m 4,2 km/h (1 Bft) SW 225 10,0 C 22,7 C 6,9 km/h (2 Bft)
23.09.2013 14:15 18,9 C 54 % 1026,9 hPa 0,0 l/m 5,1 km/h (1 Bft) S-SW 202 9,4 C 22,5 C 7,6 km/h (2 Bft)
23.09.2013 14:20 19,0 C 54 % 1026,9 hPa 0,0 l/m 5,0 km/h (1 Bft) S-SW 202 9,5 C 22,3 C 5,0 km/h (1 Bft)
23.09.2013 14:25 19,0 C 55 % 1026,9 hPa 0,0 l/m 4,7 km/h (1 Bft) W-NW 292 9,8 C 22,3 C 4,3 km/h (1 Bft)
23.09.2013 14:30 18,4 C 56 % 1026,6 hPa 0,0 l/m 3,2 km/h (1 Bft) S-SW 202 9,5 C 23,0 C 4,5 km/h (1 Bft)
23.09.2013 14:35 18,4 C 57 % 1026,6 hPa 0,0 l/m 3,5 km/h (1 Bft) W 270 9,7 C 23,1 C 6,9 km/h (2 Bft)
23.09.2013 14:40 17,5 C 58 % 1026,6 hPa 0,0 l/m 4,7 km/h (1 Bft) W-NW 292 9,1 C 22,7 C 7,4 km/h (2 Bft)
23.09.2013 14:45 17,2 C 59 % 1026,6 hPa 0,0 l/m 4,7 km/h (1 Bft) S 180 9,1 C 22,5 C 3,9 km/h (1 Bft)
23.09.2013 14:50 16,8 C 60 % 1026,3 hPa 0,0 l/m 4,3 km/h (1 Bft) W-SW 247 9,0 C 22,6 C 2,1 km/h (1 Bft)
23.09.2013 14:55 16,9 C 61 % 1026,3 hPa 0,0 l/m 4,2 km/h (1 Bft) W-SW 247 9,3 C 22,7 C 3,9 km/h (1 Bft)
23.09.2013 15:00 17,0 C 63 % 1026,3 hPa 0,0 l/m 3,7 km/h (1 Bft) S 180 9,9 C 22,9 C 5,1 km/h (1 Bft)
23.09.2013 15:05 16,9 C 63 % 1026,3 hPa 0,0 l/m 4,0 km/h (1 Bft) S 180 9,8 C 23,0 C 3,4 km/h (1 Bft)
23.09.2013 15:10 16,7 C 64 % 1026,3 hPa 0,0 l/m 4,0 km/h (1 Bft) W-SW 247 9,9 C 23,3 C 4,5 km/h (1 Bft)
23.09.2013 15:15 16,7 C 63 % 1026,3 hPa 0,0 l/m 4,3 km/h (1 Bft) S 180 9,6 C 23,2 C 3,7 km/h (1 Bft)
23.09.2013 15:20 16,4 C 63 % 1026,3 hPa 0,0 l/m 4,5 km/h (1 Bft) SO 135 9,3 C 23,1 C 3,7 km/h (1 Bft)
23.09.2013 15:25 16,4 C 63 % 1026,3 hPa 0,0 l/m 4,2 km/h (1 Bft) O-NO 67 9,3 C 23,2 C 2,7 km/h (1 Bft)
23.09.2013 15:30 16,3 C 64 % 1026,0 hPa 0,0 l/m 3,2 km/h (1 Bft) NO 45 9,5 C 23,6 C 3,4 km/h (1 Bft)
23.09.2013 15:35 16,2 C 65 % 1026,0 hPa 0,0 l/m 2,9 km/h (1 Bft) S-SO 157 9,6 C 24,0 C 1,6 km/h (1 Bft)
23.09.2013 15:40 16,0 C 66 % 1026,0 hPa 0,0 l/m 2,4 km/h (1 Bft) S 180 9,7 C 24,6 C 5,8 km/h (2 Bft)
23.09.2013 15:45 16,1 C 65 % 1026,0 hPa 0,0 l/m 2,9 km/h (1 Bft) S-SW 202 9,5 C 24,4 C 6,3 km/h (2 Bft)
23.09.2013 15:50 16,4 C 65 % 1025,8 hPa 0,0 l/m 4,8 km/h (1 Bft) S 180 9,8 C 23,6 C 3,5 km/h (1 Bft)
23.09.2013 15:55 16,3 C 64 % 1025,8 hPa 0,0 l/m 3,1 km/h (1 Bft) W 270 9,5 C 23,9 C 1,6 km/h (1 Bft)
23.09.2013 16:00 16,5 C 64 % 1025,8 hPa 0,0 l/m 2,6 km/h (1 Bft) W 270 9,7 C 24,1 C 4,0 km/h (1 Bft)
23.09.2013 16:05 16,5 C 64 % 1025,8 hPa 0,0 l/m 2,7 km/h (1 Bft) N 360 9,7 C 24,1 C 5,3 km/h (1 Bft)
23.09.2013 16:10 16,2 C 65 % 1025,2 hPa 0,0 l/m 2,1 km/h (1 Bft) W-NW 292 9,6 C 24,8 C 3,1 km/h (1 Bft)
23.09.2013 16:15 16,5 C 65 % 1025,2 hPa 0,0 l/m 2,1 km/h (1 Bft) W-NW 292 9,9 C 24,8 C 5,0 km/h (1 Bft)
23.09.2013 16:20 16,6 C 63 % 1025,2 hPa 0,0 l/m 2,9 km/h (1 Bft) W-SW 247 9,5 C 24,4 C 2,3 km/h (1 Bft)
23.09.2013 16:25 17,0 C 62 % 1025,2 hPa 0,0 l/m 3,4 km/h (1 Bft) S-SW 202 9,7 C 24,4 C 4,5 km/h (1 Bft)
23.09.2013 16:30 17,5 C 59 % 1024,9 hPa 0,0 l/m 3,5 km/h (1 Bft) N-NW 337 9,4 C 23,9 C 2,6 km/h (1 Bft)
23.09.2013 16:35 17,9 C 59 % 1024,9 hPa 0,0 l/m 2,9 km/h (1 Bft) W-NW 292 9,8 C 24,1 C 1,6 km/h (1 Bft)
23.09.2013 16:40 17,9 C 57 % 1024,9 hPa 0,0 l/m 2,7 km/h (1 Bft) W-NW 292 9,3 C 24,2 C 7,7 km/h (2 Bft)
23.09.2013 16:45 17,8 C 56 % 1024,9 hPa 0,0 l/m 3,1 km/h (1 Bft) N 360 8,9 C 24,1 C 5,8 km/h (2 Bft)
23.09.2013 16:50 17,9 C 56 % 1024,6 hPa 0,0 l/m 4,3 km/h (1 Bft) W-SW 247 9,0 C 23,5 C 1,9 km/h (1 Bft)
23.09.2013 16:55 17,4 C 58 % 1024,6 hPa 0,0 l/m 3,2 km/h (1 Bft) SW 225 9,1 C 23,6 C 2,9 km/h (1 Bft)
23.09.2013 17:00 17,0 C 59 % 1024,6 hPa 0,0 l/m 1,9 km/h (1 Bft) SW 225 8,9 C 24,1 C 4,0 km/h (1 Bft)
23.09.2013 17:05 16,8 C 60 % 1024,6 hPa 0,0 l/m 2,3 km/h (1 Bft) S-SW 202 9,0 C 24,2 C 5,5 km/h (1 Bft)
23.09.2013 17:10 16,7 C 61 % 1025,1 hPa 0,0 l/m 2,9 km/h (1 Bft) W-NW 292 9,1 C 24,0 C 5,5 km/h (1 Bft)
23.09.2013 17:15 16,6 C 62 % 1025,1 hPa 0,0 l/m 2,3 km/h (1 Bft) N-NW 337 9,3 C 23,9 C 0,0 km/h (0 Bft)
23.09.2013 17:20 16,1 C 64 % 1025,1 hPa 0,0 l/m 1,3 km/h (1 Bft) N 360 9,3 C 24,7 C 2,9 km/h (1 Bft)
23.09.2013 17:25 16,0 C 64 % 1025,1 hPa 0,0 l/m 1,1 km/h (1 Bft) SW 225 9,2 C 24,8 C 2,4 km/h (1 Bft)
23.09.2013 17:30 15,6 C 67 % 1025,1 hPa 0,0 l/m 1,6 km/h (1 Bft) NO 45 9,5 C 24,4 C 0,0 km/h (0 Bft)
23.09.2013 17:35 15,7 C 68 % 1025,1 hPa 0,0 l/m 1,1 km/h (1 Bft) O-NO 67 9,8 C 24,4 C 0,0 km/h (0 Bft)
23.09.2013 17:40 15,4 C 69 % 1025,1 hPa 0,0 l/m 0,5 km/h (0 Bft) W 270 9,7 C 24,8 C 0,0 km/h (0 Bft)
23.09.2013 17:45 15,2 C 69 % 1025,1 hPa 0,0 l/m 0,2 km/h (0 Bft) W-NW 292 9,6 C 24,8 C 0,0 km/h (0 Bft)
23.09.2013 17:50 15,1 C 70 % 1024,4 hPa 0,0 l/m 0,8 km/h (0 Bft) O 90 9,7 C 24,6 C 0,0 km/h (0 Bft)
23.09.2013 17:55 15,0 C 70 % 1024,4 hPa 0,0 l/m 1,1 km/h (1 Bft) N-NW 337 9,6 C 24,5 C 3,4 km/h (1 Bft)
23.09.2013 18:00 14,9 C 71 % 1024,4 hPa 0,0 l/m 0,3 km/h (0 Bft) NO 45 9,7 C 24,1 C 0,0 km/h (0 Bft)
23.09.2013 18:05 14,5 C 72 % 1024,4 hPa 0,0 l/m 0,3 km/h (0 Bft) O 90 9,5 C 24,1 C 0,0 km/h (0 Bft)
23.09.2013 18:10 14,7 C 73 % 1024,1 hPa 0,0 l/m 0,5 km/h (0 Bft) N-NO 22 9,9 C 23,8 C 0,0 km/h (0 Bft)
23.09.2013 18:15 14,2 C 73 % 1024,1 hPa 0,0 l/m 1,3 km/h (1 Bft) O-NO 67 9,4 C 23,3 C 4,7 km/h (1 Bft)
23.09.2013 18:20 14,4 C 74 % 1024,1 hPa 0,0 l/m 1,1 km/h (1 Bft) NO 45 9,8 C 22,5 C 2,1 km/h (1 Bft)
23.09.2013 18:25 14,3 C 75 % 1024,1 hPa 0,0 l/m 1,3 km/h (1 Bft) NO 45 9,9 C 22,3 C 1,8 km/h (1 Bft)
23.09.2013 18:30 14,3 C 76 % 1024,1 hPa 0,0 l/m 1,4 km/h (1 Bft) O-NO 67 10,1 C 21,4 C 2,9 km/h (1 Bft)
23.09.2013 18:35 14,3 C 77 % 1024,1 hPa 0,0 l/m 1,4 km/h (1 Bft) O 90 10,3 C 20,9 C 2,4 km/h (1 Bft)
23.09.2013 18:40 14,1 C 77 % 1024,1 hPa 0,0 l/m 1,6 km/h (1 Bft) O 90 10,1 C 20,2 C 0,0 km/h (0 Bft)
23.09.2013 18:45 13,9 C 77 % 1024,1 hPa 0,0 l/m 1,8 km/h (1 Bft) O 90 9,9 C 19,9 C 2,4 km/h (1 Bft)
23.09.2013 18:50 13,8 C 79 % 1024,1 hPa 0,0 l/m 1,3 km/h (1 Bft) O-NO 67 10,2 C 18,9 C 2,1 km/h (1 Bft)
23.09.2013 18:55 13,7 C 79 % 1024,1 hPa 0,0 l/m 1,1 km/h (1 Bft) O-NO 67 10,1 C 18,3 C 0,0 km/h (0 Bft)
23.09.2013 19:00 13,5 C 79 % 1024,1 hPa 0,0 l/m 1,1 km/h (1 Bft) O 90 9,9 C 17,5 C 2,6 km/h (1 Bft)
23.09.2013 19:05 13,4 C 79 % 1024,1 hPa 0,0 l/m 1,1 km/h (1 Bft) O-NO 67 9,8 C 17,0 C 1,8 km/h (1 Bft)
23.09.2013 19:10 13,1 C 79 % 1024,1 hPa 0,0 l/m 1,3 km/h (1 Bft) NO 45 9,5 C 14,9 C 2,7 km/h (1 Bft)
23.09.2013 19:15 13,0 C 79 % 1024,1 hPa 0,0 l/m 1,8 km/h (1 Bft) NO 45 9,4 C 14,1 C 3,7 km/h (1 Bft)
23.09.2013 19:20 12,8 C 81 % 1024,1 hPa 0,0 l/m 3,2 km/h (1 Bft) NO 45 9,6 C 13,3 C 4,5 km/h (1 Bft)
23.09.2013 19:25 12,7 C 81 % 1024,1 hPa 0,0 l/m 3,4 km/h (1 Bft) NO 45 9,5 C 13,1 C 4,8 km/h (1 Bft)
23.09.2013 19:30 12,4 C 82 % 1024,1 hPa 0,0 l/m 3,9 km/h (1 Bft) N-NO 22 9,4 C 12,4 C 4,2 km/h (1 Bft)
23.09.2013 19:35 12,2 C 82 % 1024,1 hPa 0,0 l/m 3,4 km/h (1 Bft) O 90 9,2 C 12,2 C 3,7 km/h (1 Bft)
23.09.2013 19:40 11,9 C 82 % 1024,1 hPa 0,0 l/m 2,3 km/h (1 Bft) O-SO 112 8,9 C 11,7 C 1,8 km/h (1 Bft)
23.09.2013 19:45 11,5 C 82 % 1024,1 hPa 0,0 l/m 1,8 km/h (1 Bft) O 90 8,5 C 11,5 C 2,3 km/h (1 Bft)
23.09.2013 19:50 10,7 C 83 % 1024,1 hPa 0,0 l/m 0,5 km/h (0 Bft) N-NO 22 7,9 C 10,8 C 0,0 km/h (0 Bft)
23.09.2013 19:55 10,5 C 83 % 1024,1 hPa 0,0 l/m 0,0 km/h (0 Bft) NO 45 7,7 C 10,4 C 0,0 km/h (0 Bft)
23.09.2013 20:00 10,4 C 84 % 1024,1 hPa 0,0 l/m 0,0 km/h (0 Bft) O-NO 67 7,8 C 10,1 C 0,0 km/h (0 Bft)
23.09.2013 20:05 10,4 C 85 % 1024,1 hPa 0,0 l/m 0,0 km/h (0 Bft) O 90 8,0 C 10,0 C 1,6 km/h (1 Bft)
23.09.2013 20:10 10,6 C 85 % 1023,9 hPa 0,0 l/m 1,0 km/h (0 Bft) O-SO 112 8,2 C 9,9 C 0,0 km/h (0 Bft)
23.09.2013 20:15 10,1 C 85 % 1023,9 hPa 0,0 l/m 1,1 km/h (1 Bft) O 90 7,7 C 9,6 C 1,8 km/h (1 Bft)
23.09.2013 20:20 9,9 C 86 % 1023,9 hPa 0,0 l/m 1,0 km/h (0 Bft) O 90 7,7 C 9,5 C 2,9 km/h (1 Bft)
23.09.2013 20:25 9,9 C 86 % 1023,9 hPa 0,0 l/m 1,4 km/h (1 Bft) NO 45 7,7 C 9,4 C 2,9 km/h (1 Bft)
23.09.2013 20:30 9,8 C 87 % 1023,8 hPa 0,0 l/m 2,6 km/h (1 Bft) O-NO 67 7,7 C 9,3 C 1,9 km/h (1 Bft)
23.09.2013 20:35 9,9 C 88 % 1023,8 hPa 0,0 l/m 1,8 km/h (1 Bft) O 90 8,0 C 9,2 C 3,1 km/h (1 Bft)
23.09.2013 20:40 9,7 C 88 % 1023,8 hPa 0,0 l/m 2,1 km/h (1 Bft) O 90 7,8 C 9,2 C 4,7 km/h (1 Bft)
23.09.2013 20:45 9,5 C 88 % 1023,8 hPa 0,0 l/m 2,6 km/h (1 Bft) NO 45 7,6 C 9,1 C 4,2 km/h (1 Bft)
23.09.2013 20:50 9,5 C 89 % 1024,1 hPa 0,0 l/m 2,7 km/h (1 Bft) O 90 7,8 C 8,9 C 3,2 km/h (1 Bft)
23.09.2013 20:55 9,4 C 89 % 1024,1 hPa 0,0 l/m 2,3 km/h (1 Bft) O 90 7,7 C 8,9 C 3,1 km/h (1 Bft)
23.09.2013 21:00 9,2 C 89 % 1024,1 hPa 0,0 l/m 2,6 km/h (1 Bft) O-NO 67 7,5 C 8,8 C 4,2 km/h (1 Bft)
23.09.2013 21:05 9,3 C 89 % 1024,1 hPa 0,0 l/m 2,7 km/h (1 Bft) O-NO 67 7,6 C 8,8 C 4,5 km/h (1 Bft)
23.09.2013 21:10 9,8 C 90 % 1023,9 hPa 0,0 l/m 4,0 km/h (1 Bft) O 90 8,2 C 8,9 C 5,5 km/h (1 Bft)
23.09.2013 21:15 9,7 C 90 % 1023,9 hPa 0,0 l/m 4,5 km/h (1 Bft) O 90 8,1 C 8,9 C 5,0 km/h (1 Bft)
23.09.2013 21:20 9,2 C 90 % 1023,9 hPa 0,0 l/m 5,0 km/h (1 Bft) O 90 7,6 C 8,9 C 4,5 km/h (1 Bft)
23.09.2013 21:25 9,1 C 90 % 1023,9 hPa 0,0 l/m 4,8 km/h (1 Bft) O 90 7,5 C 8,8 C 5,5 km/h (1 Bft)
23.09.2013 21:30 9,1 C 90 % 1023,8 hPa 0,0 l/m 4,5 km/h (1 Bft) O-SO 112 7,5 C 8,7 C 4,3 km/h (1 Bft)
23.09.2013 21:35 8,7 C 90 % 1023,8 hPa 0,0 l/m 4,0 km/h (1 Bft) O-SO 112 7,2 C 8,7 C 3,4 km/h (1 Bft)
23.09.2013 21:40 8,7 C 91 % 1023,8 hPa 0,0 l/m 2,9 km/h (1 Bft) O-SO 112 7,3 C 8,6 C 3,2 km/h (1 Bft)
23.09.2013 21:45 8,5 C 91 % 1023,8 hPa 0,0 l/m 2,4 km/h (1 Bft) O 90 7,1 C 8,6 C 2,1 km/h (1 Bft)
23.09.2013 21:50 8,3 C 91 % 1023,7 hPa 0,0 l/m 1,1 km/h (1 Bft) O-SO 112 6,9 C 8,5 C 0,0 km/h (0 Bft)
23.09.2013 21:55 8,0 C 90 % 1023,7 hPa 0,0 l/m 0,2 km/h (0 Bft) O 90 6,5 C 8,3 C 0,0 km/h (0 Bft)
23.09.2013 22:00 8,0 C 90 % 1023,7 hPa 0,0 l/m 0,0 km/h (0 Bft) O 90 6,5 C 8,0 C 0,0 km/h (0 Bft)
23.09.2013 22:05 7,9 C 90 % 1023,7 hPa 0,0 l/m 0,0 km/h (0 Bft) O 90 6,4 C 8,0 C 0,0 km/h (0 Bft)
23.09.2013 22:10 7,6 C 90 % 1023,4 hPa 0,0 l/m 0,0 km/h (0 Bft) NO 45 6,1 C 7,7 C 0,0 km/h (0 Bft)
23.09.2013 22:15 7,7 C 90 % 1023,4 hPa 0,0 l/m 0,0 km/h (0 Bft) O 90 6,2 C 7,5 C 0,0 km/h (0 Bft)
23.09.2013 22:20 7,7 C 90 % 1023,4 hPa 0,0 l/m 0,0 km/h (0 Bft) NO 45 6,2 C 7,4 C 0,0 km/h (0 Bft)
23.09.2013 22:25 7,6 C 90 % 1023,4 hPa 0,0 l/m 0,0 km/h (0 Bft) NO 45 6,1 C 7,4 C 0,0 km/h (0 Bft)
23.09.2013 22:30 7,2 C 90 % 1023,5 hPa 0,0 l/m 0,0 km/h (0 Bft) SO 135 5,7 C 7,3 C 0,0 km/h (0 Bft)
23.09.2013 22:35 7,3 C 90 % 1023,5 hPa 0,0 l/m 0,0 km/h (0 Bft) O-SO 112 5,8 C 7,2 C 0,0 km/h (0 Bft)
23.09.2013 22:40 7,1 C 90 % 1023,5 hPa 0,0 l/m 0,0 km/h (0 Bft) SO 135 5,6 C 7,2 C 0,0 km/h (0 Bft)
23.09.2013 22:45 7,0 C 90 % 1023,5 hPa 0,0 l/m 0,0 km/h (0 Bft) NO 45 5,5 C 7,1 C 0,0 km/h (0 Bft)
23.09.2013 22:50 6,8 C 90 % 1023,6 hPa 0,0 l/m 0,0 km/h (0 Bft) NO 45 5,3 C 6,8 C 0,0 km/h (0 Bft)
23.09.2013 22:55 6,9 C 90 % 1023,6 hPa 0,0 l/m 0,0 km/h (0 Bft) O 90 5,4 C 6,8 C 0,0 km/h (0 Bft)
23.09.2013 23:00 6,8 C 90 % 1023,6 hPa 0,0 l/m 0,0 km/h (0 Bft) SO 135 5,3 C 7,0 C 0,0 km/h (0 Bft)
23.09.2013 23:05 6,6 C 90 % 1023,6 hPa 0,0 l/m 0,0 km/h (0 Bft) SO 135 5,1 C 7,0 C 0,0 km/h (0 Bft)
23.09.2013 23:10 7,0 C 90 % 1023,4 hPa 0,0 l/m 0,0 km/h (0 Bft) O 90 5,5 C 6,8 C 0,0 km/h (0 Bft)
23.09.2013 23:15 6,7 C 90 % 1023,4 hPa 0,0 l/m 0,0 km/h (0 Bft) NO 45 5,2 C 6,7 C 0,0 km/h (0 Bft)
23.09.2013 23:20 6,4 C 90 % 1023,4 hPa 0,0 l/m 0,0 km/h (0 Bft) NO 45 4,9 C 6,5 C 0,0 km/h (0 Bft)
23.09.2013 23:25 6,2 C 90 % 1023,4 hPa 0,0 l/m 0,0 km/h (0 Bft) NO 45 4,7 C 6,5 C 0,0 km/h (0 Bft)
23.09.2013 23:30 6,4 C 90 % 1023,4 hPa 0,0 l/m 0,0 km/h (0 Bft) NO 45 4,9 C 6,4 C 0,0 km/h (0 Bft)
23.09.2013 23:35 6,6 C 91 % 1023,4 hPa 0,0 l/m 0,0 km/h (0 Bft) NO 45 5,2 C 6,5 C 0,0 km/h (0 Bft)
23.09.2013 23:40 6,2 C 91 % 1023,4 hPa 0,0 l/m 0,0 km/h (0 Bft) NO 45 4,8 C 6,5 C 0,0 km/h (0 Bft)
23.09.2013 23:45 6,3 C 91 % 1023,4 hPa 0,0 l/m 0,0 km/h (0 Bft) NO 45 4,9 C 6,4 C 0,0 km/h (0 Bft)
23.09.2013 23:50 6,2 C 91 % 1023,0 hPa 0,0 l/m 0,0 km/h (0 Bft) NO 45 4,8 C 6,2 C 0,0 km/h (0 Bft)
23.09.2013 23:55 6,0 C 91 % 1023,0 hPa 0,0 l/m 0,0 km/h (0 Bft) NO 45 4,6 C 6,0 C 0,0 km/h (0 Bft)
_ Min-Zeit 04:00 12:30 23:55 - 23:55 - - 04:00 04:30 23:55
Minimum _ 4,8 C 52 % 1023,0 hPa - 0,0 km/h (0 Bft) - - 3,8 C 4,9 C 0,0 km/h (0 Bft)
_ Max-Zeit 12:20 08:15 00:05 23:55 14:15 - - 10:30 17:45 14:00
Maximum _ 19,5 C 94 % 1028,0 hPa 0,0 l/m 5,1 km/h
S-SW (1 Bft)
- - 12,0 C 24,8 C 9,2 km/h
S-SW (2 Bft)
Durchschnitt _ 10,7 C 81 % 1026,1 hPa #0,0 l/m 1,4 km/h (1 Bft) O - 7,3 C 12,7 C 1,8 km/h (1 Bft)